OneWeb SL0211

operational
NORAD ID: 48767 Int'l Des: 2021-045 Owner: ONEWEBN Country: UK Constellation: oneweb
LEOCIRCULARPOLARONEWEB_TYPE

About OneWeb SL0211

Description loading...

Live Position

Loading 3D Globe...

Upcoming Passes

Altitude History

Altitude vs Time

uPlot chart will show altitude changes over time

Two-Line Element Set

1 48767U 21045A 26066.09559029 .00000055 00000-0 11011-3 0 9990
2 48767 87.8942 279.4881 0002015 97.0715 263.0645 13.16143624231012
Epoch: Mar 7, 2026 • Age: 15 hours

Current Status

Altitude 1228.4 km
Velocity 7.24 km/s
Sub-Earth Point -75.13°S, 114.13°W
Launch Date May 28, 2021
Age 4.7 years
Type internet

Technical Details

Classification Payload
Mass 148.00 kg
Dry Mass 140.00 kg
Total Mass 148.00 kg
Length 1.30 m
Diameter 1.00 m
Span 5.00 m
Shape Trapezoid+2 pan
Manufacturer ONEWUS
Bus Type ARROW
Phase Status In Orbit
Owner/State ONEWEBN/UK

Large Constellations

Loading constellations...